Miscellaneous Local Product
Issued by NWS North Platte, NE

Home | Current Version | Previous Version | Graphics & Text | Print | Product List | Glossary On
Versions: 1 2 3 4 5 6 7 8 9 10 11 12 13 14 15 16 17 18 19 20 21 22 23 24 25 26 27 28 29 30 31 32 33 34 35 36 37 38 39 40 41 42 43 44 45 46 47 48 49 50
000
AXUS43 KLBF 041510
MISLBF


WESTERN AND NORTH CENTRAL NEBRASKA HOURLY WEATHER ROUNDUP
NATIONAL WEATHER SERVICE NORTH PLATTE NE
1000 AM CDT SAT JUL 04 2015

***STATIONS NOT REPORTING VARIABLES SUCH AS SKY/WEATHER OR
PRESSURE ARE PROVIDED BY THE NEBRASKA DEPARTMENT OF
ROADS...RAWS...AND APRS NETWORKS...AND ARE NOT UNDER
NATIONAL WEATHER SERVICE QUALITY CONTROL***

...OBSERVATIONS IN AND NEAR THE EASTERN PANHANDLE OF NEBRASKA...

CITY           SKY/WX    TMP DP  RH WIND       PRES   REMARKS
PINE RIDGE     SUNNY     75  63  66 SW15      29.90S
CHADRON        SUNNY     77  63  61 S9        29.89F
ALLIANCE       SUNNY     74  64  71 S10       29.94F
SIDNEY         MOSUNNY   76  61  59 S13       29.98S
WHITECLAY        N/A     75  62  64 S17         N/A
CRESCENT LAKE    N/A     74  63  67 S7G14       N/A
BIG SPRINGS      N/A     77  64  64 S10         N/A
$$

...OBSERVATIONS IN NORTH CENTRAL NEBRASKA...

CITY           SKY/WX    TMP DP  RH WIND       PRES   REMARKS
VALENTINE      SUNNY     77  61  57 S16       29.92F
THEDFORD       MOSUNNY   75  63  66 S13       29.96S
AINSWORTH      MOSUNNY   73  63  70 S12       29.94F
O`NEILL        PTSUNNY   73  66  78 S7        29.96F
ORD            PTSUNNY   72  62  71 S13       29.96F
BROKEN BOW     MOSUNNY   73  64  73 S10       29.97F
VALENTINE NWR    N/A     71  63  75 S9          N/A
SPRINGVIEW       N/A     78  66  66 CALM        N/A
HALSEY           N/A     71  61  71 S7G16       N/A
BREWSTER         N/A     78  67  67 S14         N/A
ROSE             N/A     83  77  81 S14         N/A  HX  93
NEWPORT          N/A     76  66  72 S12         N/A
SARGENT          N/A     72  65  78 CALM        N/A
CHAMBERS         N/A     75  66  73 S6          N/A
EWING            N/A     73  67  82 S6          N/A
$$

...OBSERVATIONS IN SOUTHWEST NEBRASKA AND FAR NORTHEAST COLORADO...

CITY           SKY/WX    TMP DP  RH WIND       PRES   REMARKS
WRAY           FAIR      76  61  59 SE8       29.98S
HOLYOKE        FAIR      75  63  64 S10G16    29.97S
IMPERIAL       PTSUNNY   75  61  61 S14       29.96F
OGALLALA       SUNNY     75  63  66 S10G17    29.95F
NORTH PLATTE   SUNNY     76  61  59 S10       29.97S
MCCOOK         SUNNY     77  62  59 S9        29.96F
LEXINGTON      SUNNY     76  65  68 S12       29.98F
PAXTON           N/A     77  65  67 S12         N/A
GOTHENBURG       N/A     74  61  63 S6          N/A
CALLAWAY         N/A     73  69  86 S13         N/A
$$

...NORTH PLATTE AREA...

CITY           SKY/WX    TMP DP  RH WIND       PRES   REMARKS
AIRPORT        SUNNY     76  61  59 S10       29.97S
DOWNTOWN         N/A     76  63  63 S5G12       N/A
HILLCREST        N/A     75  64  69 S12         N/A
$$

...SOME WEATHER OBSERVATIONS FROM AROUND THE REGION...

CITY           SKY/WX    TMP DP  RH WIND       PRES   REMARKS
DENVER         MOSUNNY   73  56  54 W5        30.03S
LARAMIE        MOSUNNY   72  45  37 VRB3      30.16S
CHEYENNE       SUNNY     76  56  49 S6        30.06S
SCOTTSBLUFF    SUNNY     73  61  65 VRB6      29.94F
RAPID CITY     SUNNY     76  64  66 S10       29.85F
PIERRE         SUNNY     75  67  76 S9        29.84F
WINNER         FAIR      77  60  55 S14       29.89S
SIOUX FALLS    SUNNY     73  64  73 SW7       29.96F
OMAHA          SUNNY     72  59  63 S6        30.01S
GRAND ISLAND   PTSUNNY   74  63  68 S12       29.99F
KANSAS CITY    PTSUNNY   73  61  65 SE8       30.03R
WICHITA        MOSUNNY   76  66  71 SE7       30.01S
HAYS           SUNNY     77  61  57 S17       30.00S
LIBERAL        SUNNY     79  64  61 S9        30.04S
GOODLAND       SUNNY     74  62  66 S17       29.99F
$$



USA.gov is the U.S. government's official web portal to all federal, state and local government web resources and services.